Date,TemperatureHighF,TemperatureAvgF,TemperatureLowF,DewpointHighF,DewpointAvgF,DewpointLowF,HumidityHigh,HumidityAvg,HumidityLow,PressureMaxIn,PressureMinIn,WindSpeedMaxMPH,WindSpeedAvgMPH,GustSpeedMaxMPH,PrecipitationSumIn
2012-1-1,34,26,19,32,19,11,95,76,65,30.35,29.77,7,4,21,0.01
2012-1-2,20,16,9,13,8,5,86,69,57,30.56,30.33,6,2,22,0.00
2012-1-3,28,20,10,21,13,6,87,74,55,30.52,29.91,6,1,16,0.00
2012-1-4,39,30,23,28,25,20,96,82,64,30.14,29.92,4,1,11,0.02
2012-1-5,46,35,25,37,30,24,97,83,60,29.99,29.62,2,0,7,0.05
2012-1-6,47,42,37,32,30,25,75,62,51,29.87,29.62,4,1,15,0.00
2012-1-7,37,30,24,30,23,19,93,76,63,30.24,29.87,4,1,16,0.00
2012-1-8,40,30,19,29,25,18,97,83,61,30.33,30.09,3,0,10,0.00
2012-1-9,49,38,30,30,28,24,87,67,49,30.10,29.89,3,1,20,0.00
2012-1-10,52,37,26,36,31,24,94,79,53,29.98,29.64,3,0,10,0.00
2012-1-11,38,27,12,35,23,6,96,85,71,29.90,29.60,6,2,19,0.01
2012-1-12,14,12,10,8,5,3,81,75,69,29.95,29.86,5,3,17,0.00
2012-1-13,13,11,7,8,6,3,85,80,74,30.08,29.95,3,0,12,0.00
2012-1-14,21,15,6,18,11,3,89,84,75,30.17,30.07,2,0,6,0.00
2012-1-15,40,29,20,27,23,18,94,80,57,30.17,29.74,6,1,20,0.00
2012-1-16,31,27,18,27,20,10,91,74,56,30.03,29.73,5,2,15,0.00
2012-1-17,18,12,3,11,4,-2,84,70,53,30.34,30.01,5,2,16,0.00
2012-1-18,25,11,-2,20,4,-10,86,74,61,30.31,29.75,6,2,18,0.00
2012-1-19,4,-4,-12,-10,-14,-19,74,61,45,30.28,30.02,4,1,17,0.00
2012-1-20,12,5,-2,5,-1,-10,90,75,56,30.33,30.22,2,0,4,0.00
2012-1-21,21,10,-2,18,5,-5,90,83,67,30.33,29.86,6,2,21,0.00
2012-1-22,26,23,20,25,21,17,95,90,81,29.85,29.54,6,2,19,0.00
2012-1-23,27,24,20,24,21,16,95,89,83,29.96,29.53,3,1,12,0.00
2012-1-24,26,21,12,21,17,10,93,86,79,30.34,29.96,2,0,9,0.00
2012-1-25,34,29,24,30,25,21,92,87,75,30.34,29.87,4,2,14,0.00
2012-1-26,40,32,26,31,27,20,95,81,66,29.88,29.70,4,1,15,0.15
2012-1-27,35,28,20,33,23,17,93,82,60,29.97,29.73,6,1,20,0.00
2012-1-28,28,23,17,20,16,12,90,75,61,30.03,29.94,3,1,12,0.00
2012-1-29,22,18,12,20,10,5,88,72,56,30.24,30.01,3,1,10,0.00
2012-1-30,46,31,19,32,24,13,91,76,56,30.02,29.64,3,1,10,0.04
2012-1-31,47,36,29,36,31,27,94,84,65,30.00,29.56,4,1,12,0.00
2012-2-1,35,33,30,34,31,28,97,94,89,30.14,30.01,3,0,7,0.00
2012-2-2,36,33,30,34,31,29,98,95,88,30.44,30.13,1,0,5,0.00
2012-2-3,34,31,27,31,29,25,96,92,84,30.53,30.44,1,0,6,0.00
2012-2-4,34,28,24,30,26,24,97,94,84,30.49,30.36,1,0,7,0.00
2012-2-5,30,29,27,28,26,25,94,92,88,30.40,30.23,2,0,9,0.00
2012-2-6,44,34,25,31,27,23,96,80,58,30.33,30.09,2,1,12,0.00
2012-2-7,31,25,13,25,16,3,78,68,54,30.57,30.33,3,1,11,0.00
2012-2-8,31,20,9,9,4,-2,77,52,30,30.55,30.29,2,0,8,0.00
2012-2-9,38,28,16,27,18,6,83,67,50,30.29,29.91,6,1,18,0.00
2012-2-10,28,12,5,19,-2,-10,70,53,33,30.62,30.02,6,3,18,0.00
2012-2-11,19,10,0,1,-6,-13,63,49,32,30.70,30.56,5,2,13,0.00
2012-2-12,31,19,7,5,1,-1,71,49,25,30.57,30.13,2,0,11,0.00
2012-2-13,31,25,17,26,17,4,96,73,49,30.13,29.77,4,1,10,0.00
2012-2-14,34,29,22,28,26,20,95,88,75,29.81,29.75,4,1,11,0.05
2012-2-15,38,31,20,33,28,19,96,87,66,30.05,29.81,2,0,9,0.01
2012-2-16,40,31,24,28,23,19,93,74,48,30.13,30.05,4,1,13,0.00
2012-2-17,40,32,24,29,23,15,89,70,55,30.19,29.98,4,1,12,0.01
2012-2-18,37,26,16,20,16,13,87,67,47,30.30,30.19,3,0,9,0.00
2012-2-19,44,32,19,25,21,16,91,66,39,30.20,30.07,5,1,13,0.00
2012-2-20,43,34,27,31,25,21,96,71,44,30.12,29.66,6,2,21,0.00
2012-2-21,36,33,28,32,29,23,97,86,75,29.66,29.52,4,1,14,0.04
2012-2-22,36,28,19,24,22,17,94,79,58,29.58,29.44,2,0,8,0.00
2012-2-23,40,32,27,28,25,22,86,73,57,29.73,29.46,3,0,7,0.08
2012-2-24,29,24,14,26,16,6,90,71,55,30.11,29.73,6,2,21,0.00
2012-2-25,28,20,10,20,11,6,85,70,53,30.30,30.10,4,1,12,0.00
2012-2-26,38,30,25,30,22,16,83,74,62,30.10,29.65,5,2,18,0.00
2012-2-27,30,24,20,21,17,15,86,75,58,30.47,30.04,4,1,13,0.00
2012-2-28,33,30,24,32,25,18,95,83,68,30.41,29.65,3,1,11,0.00
2012-2-29,35,33,32,34,32,29,97,95,90,29.73,29.26,4,1,12,0.05
2012-3-1,39,33,30,32,30,28,96,87,72,29.84,29.73,2,0,7,0.13
2012-3-2,39,32,27,32,28,22,98,83,63,29.78,29.61,4,1,11,0.28
2012-3-3,28,22,15,23,16,10,88,79,69,29.92,29.62,4,1,13,0.00
2012-3-4,28,18,6,17,11,3,90,74,55,30.16,29.91,2,0,8,0.03
2012-3-5,36,26,13,28,20,12,94,81,63,30.26,29.90,8,2,18,0.01
2012-3-6,58,44,30,45,34,25,85,71,51,29.90,29.55,4,1,12,0.17
2012-3-7,52,40,26,46,36,20,94,83,68,29.98,29.52,5,1,16,0.07
2012-3-8,37,28,20,26,18,1,88,67,34,30.44,29.98,8,2,20,0.00
2012-3-9,34,26,14,21,10,3,70,52,33,30.66,30.18,4,2,15,0.00
2012-3-10,65,51,33,36,30,21,65,45,32,30.18,29.91,6,3,17,0.00
2012-3-11,66,55,45,45,35,30,63,47,30,29.98,29.75,6,2,18,0.00
2012-3-12,52,48,44,48,45,39,98,90,62,29.87,29.60,3,1,11,0.32
2012-3-13,65,50,33,43,38,32,97,68,34,30.06,29.83,6,1,15,0.00
2012-3-14,71,59,48,51,46,29,89,64,38,29.88,29.71,3,1,9,0.00
2012-3-15,61,51,41,38,29,22,70,44,35,30.02,29.88,2,0,9,0.00
2012-3-16,80,60,40,60,49,36,88,67,48,29.97,29.77,5,1,18,0.00
2012-3-17,79,68,57,63,59,54,93,72,52,29.77,29.68,8,2,20,0.00
2012-3-18,79,71,62,61,59,58,85,67,50,29.74,29.63,8,4,22,0.00
2012-3-19,79,68,61,61,59,58,96,76,51,29.70,29.56,7,3,22,0.59
2012-3-20,64,61,56,60,55,52,96,82,69,29.91,29.64,3,1,10,0.02
2012-3-21,64,59,55,57,55,53,96,87,74,30.03,29.86,4,0,14,0.00
2012-3-22,69,60,55,61,58,54,98,92,73,30.05,29.93,4,0,11,0.15
2012-3-23,72,64,59,60,58,55,98,83,55,29.96,29.83,2,0,6,0.01
2012-3-24,69,59,51,57,53,49,98,83,61,30.02,29.86,4,1,12,0.00
2012-3-25,58,48,38,49,34,25,89,63,35,30.24,30.02,4,1,14,0.00
2012-3-26,49,41,36,31,29,24,80,63,39,30.31,29.91,6,3,25,0.07
2012-3-27,69,55,42,51,41,29,74,61,37,29.92,29.58,8,4,25,0.00
2012-3-28,54,46,40,40,36,33,88,68,51,30.07,29.80,3,1,14,0.00
2012-3-29,61,49,38,47,37,31,92,64,44,30.10,29.78,5,1,15,0.10
2012-3-30,53,46,40,45,41,37,91,84,72,29.89,29.77,3,1,8,0.01
2012-3-31,51,46,42,47,43,40,94,89,83,29.88,29.73,4,2,16,0.00
2012-4-1,68,55,47,47,44,38,90,70,36,29.74,29.57,5,2,15,0.00
2012-4-2,71,60,50,53,42,34,84,52,40,29.81,29.62,6,2,18,0.07
2012-4-3,64,53,46,53,38,26,88,61,28,30.08,29.78,4,1,14,0.04
2012-4-4,65,52,38,32,28,20,72,42,24,30.10,29.93,3,1,11,0.00
2012-4-5,61,51,42,33,28,21,66,43,27,30.17,29.99,3,1,10,0.00
2012-4-6,62,50,38,32,29,23,72,46,23,30.28,30.07,5,2,17,0.00
2012-4-7,58,49,45,48,35,25,95,61,41,30.18,30.02,5,2,20,0.15
2012-4-8,63,50,34,30,24,19,71,40,20,30.24,30.05,5,1,17,0.00
2012-4-9,48,42,32,25,21,18,58,44,36,30.19,30.06,5,2,17,0.00
2012-4-10,44,35,29,20,18,15,68,50,33,30.33,30.19,5,2,16,0.00
2012-4-11,54,40,27,28,22,16,73,51,31,30.43,30.23,2,0,6,0.00
2012-4-12,65,49,29,33,26,22,96,48,20,30.23,30.02,4,1,11,0.00
2012-4-13,55,51,48,51,40,28,95,67,37,30.02,29.72,8,4,24,0.13
2012-4-14,76,61,46,53,49,41,97,69,29,29.81,29.58,4,1,11,0.01
2012-4-15,72,58,47,64,54,46,97,90,68,29.58,29.16,4,1,13,1.18
2012-4-16,47,39,34,46,34,30,97,82,66,30.22,29.21,6,2,24,0.15
2012-4-17,59,46,29,48,36,28,97,71,47,30.33,29.98,4,1,12,0.28
2012-4-18,63,56,47,52,46,37,93,73,48,30.00,29.77,6,2,16,0.06
2012-4-19,50,45,41,38,34,27,86,66,49,30.05,29.93,3,1,9,0.00
2012-4-20,59,47,33,35,29,24,83,51,30,30.11,29.99,4,1,11,0.00
2012-4-21,53,46,43,42,37,30,95,73,46,30.01,29.90,4,1,15,0.33
2012-4-22,55,48,40,44,41,37,96,79,53,30.24,29.97,2,0,8,0.05
2012-4-23,65,51,34,43,38,34,98,67,38,30.22,29.84,3,0,9,0.00
2012-4-24,75,61,50,47,42,38,80,52,28,29.84,29.54,3,1,11,0.00
2012-4-25,73,62,50,53,48,43,84,63,47,29.75,29.52,4,1,12,0.06
2012-4-26,57,51,46,49,31,20,81,50,27,30.16,29.76,5,1,16,0.00
2012-4-27,57,50,43,31,26,23,54,39,28,30.20,30.01,5,1,17,0.00
2012-4-28,52,45,40,39,33,20,93,65,32,30.23,29.97,4,2,14,0.30
2012-4-29,57,51,44,46,41,38,90,72,54,30.24,30.02,4,1,12,0.04
2012-4-30,64,53,44,52,47,42,95,80,59,30.02,29.81,3,1,10,0.00
2012-5-1,74,61,52,61,55,50,96,82,62,29.82,29.54,7,2,22,0.55
2012-5-2,82,69,57,63,59,54,97,73,39,29.73,29.50,4,1,10,0.39
2012-5-3,81,69,60,64,61,55,97,77,55,29.88,29.67,6,1,19,0.64
2012-5-4,74,62,52,58,54,48,93,75,50,29.97,29.81,4,1,14,0.21
2012-5-5,61,57,55,55,54,52,96,89,79,30.07,29.81,6,1,17,0.49
2012-5-6,65,58,52,58,56,51,98,91,77,30.02,29.80,6,1,14,1.35
2012-5-7,67,59,50,56,47,40,98,66,40,29.98,29.86,4,1,13,0.00
2012-5-8,61,52,48,51,47,43,96,82,60,29.95,29.83,4,0,11,0.15
2012-5-9,67,55,44,48,42,35,98,65,33,30.07,29.94,2,1,9,0.00
2012-5-10,74,60,41,46,43,39,96,58,33,29.96,29.81,5,2,13,0.00
2012-5-11,70,62,51,56,49,41,93,66,46,30.21,29.76,6,2,16,0.07
2012-5-12,71,59,48,50,38,27,96,54,21,30.35,30.21,3,0,10,0.00
2012-5-13,78,61,42,42,37,31,86,48,20,30.27,30.03,3,1,11,0.00
2012-5-14,88,72,51,51,44,38,74,40,18,30.03,29.76,4,1,12,0.00
2012-5-15,74,66,57,45,40,35,59,39,26,30.04,29.75,5,2,16,0.00
2012-5-16,72,60,43,41,36,30,85,46,22,30.15,29.99,3,0,7,0.00
2012-5-17,83,69,56,48,44,37,58,42,28,30.01,29.71,10,4,24,0.00
2012-5-18,94,80,68,58,51,45,53,38,22,29.75,29.64,7,4,23,0.00
2012-5-19,88,76,62,67,59,53,94,57,40,29.79,29.66,7,2,23,0.11
2012-5-20,62,56,46,61,51,41,95,85,50,30.18,29.75,6,2,18,0.03
2012-5-21,77,62,44,50,43,36,96,56,26,30.25,30.06,2,0,9,0.00
2012-5-22,87,72,58,49,45,41,56,39,25,30.06,29.62,7,3,22,0.00
2012-5-23,88,73,64,66,53,47,97,52,32,29.64,29.32,9,3,27,0.94
2012-5-24,64,61,56,64,59,52,98,93,80,29.67,29.27,5,1,14,2.82
2012-5-25,71,62,50,56,51,46,95,70,47,30.08,29.67,2,0,9,0.00
2012-5-26,64,62,59,62,58,53,96,88,72,30.19,29.84,3,1,12,0.47
2012-5-27,92,76,63,72,66,61,95,76,48,29.84,29.51,6,2,21,0.53
2012-5-28,81,70,60,65,59,44,98,71,45,29.72,29.54,5,1,18,0.24
2012-5-29,65,58,52,50,45,40,71,62,54,29.92,29.69,4,2,15,0.00
2012-5-30,63,55,48,45,42,40,88,62,45,30.02,29.91,3,1,10,0.00
2012-5-31,66,58,48,48,43,38,84,59,38,30.05,29.97,3,0,10,0.00
2012-6-1,73,60,42,51,41,36,98,56,26,29.97,29.77,3,0,10,0.00
2012-6-2,77,64,49,52,47,42,91,57,31,29.76,29.71,4,1,11,0.00
2012-6-3,79,68,51,57,52,48,94,61,33,29.81,29.73,4,1,9,0.00
2012-6-4,86,73,58,61,57,54,91,61,37,29.90,29.79,3,0,9,0.00
2012-6-5,85,74,60,61,56,51,94,58,33,29.97,29.89,3,0,8,0.00
2012-6-6,83,72,62,63,57,54,82,60,38,30.01,29.95,4,1,12,0.01
2012-6-7,85,76,65,64,60,54,72,59,46,30.05,29.92,4,1,11,0.00
2012-6-8,91,78,69,67,60,58,68,55,39,29.93,29.68,4,1,12,0.00
2012-6-9,93,82,71,61,57,53,60,44,28,29.71,29.58,7,2,18,0.00
2012-6-10,94,81,63,70,62,55,95,55,36,29.70,29.50,9,4,25,1.01
2012-6-11,75,66,56,62,54,41,97,69,45,29.96,29.64,5,2,18,0.00
2012-6-12,70,59,50,47,43,39,79,58,35,30.16,29.96,4,1,14,0.00
2012-6-13,76,65,53,54,50,46,82,58,39,30.11,29.88,7,2,17,0.00
2012-6-14,69,66,61,66,58,50,96,78,58,29.91,29.73,6,3,19,0.69
2012-6-15,83,73,61,66,62,59,97,72,46,29.98,29.86,3,0,11,0.00
2012-6-16,84,71,62,71,64,52,96,79,59,29.93,29.73,4,0,13,0.12
2012-6-17,80,68,57,65,57,52,95,71,40,29.83,29.41,5,1,18,1.07
2012-6-18,92,79,66,74,65,55,98,68,30,29.60,29.37,6,1,14,0.16
2012-6-19,94,78,65,75,68,58,96,71,48,29.75,29.50,8,3,22,0.58
2012-6-20,84,75,63,70,66,62,96,77,60,29.83,29.57,6,2,20,0.13
2012-6-21,78,68,60,62,57,54,96,70,45,29.97,29.83,4,1,15,0.00
2012-6-22,82,71,58,62,56,50,96,64,34,29.99,29.90,3,1,11,0.00
2012-6-23,79,72,66,64,60,56,76,66,50,29.93,29.84,5,1,13,0.00
2012-6-24,86,76,66,70,64,51,92,69,45,30.05,29.86,3,1,9,0.00
2012-6-25,80,70,60,55,50,46,70,50,32,30.15,29.98,4,1,14,0.00
2012-6-26,83,71,59,57,53,50,84,55,33,30.01,29.70,6,2,18,0.00
2012-6-27,95,82,69,76,66,57,74,60,47,29.70,29.57,4,1,12,0.00
2012-6-28,89,79,66,74,61,52,81,56,29,29.89,29.66,5,1,15,0.00
2012-6-29,92,78,61,65,59,49,93,57,24,29.85,29.72,2,0,11,0.00
2012-6-30,92,79,66,68,64,57,95,63,32,29.83,29.74,2,0,6,0.00
2012-7-1,94,84,71,73,69,65,88,64,44,29.87,29.77,5,1,12,0.00
2012-7-2,99,88,75,76,73,69,93,64,39,29.80,29.67,5,2,14,0.00
2012-7-3,97,84,68,79,72,65,95,69,49,29.83,29.64,7,1,23,0.17
2012-7-4,101,90,81,78,75,72,90,64,43,29.72,29.64,5,2,15,0.00
2012-7-5,94,86,79,76,71,64,83,65,38,29.88,29.71,2,1,9,0.00
2012-7-6,102,84,66,78,70,61,95,65,38,29.96,29.76,5,1,13,0.53
2012-7-7,86,74,63,65,61,55,94,67,41,30.09,29.94,4,1,12,0.00
2012-7-8,90,79,67,65,63,59,86,60,37,30.12,30.01,3,1,12,0.00
2012-7-9,87,77,66,65,58,52,81,55,32,30.09,30.04,4,1,10,0.00
2012-7-10,90,77,63,63,55,46,89,52,24,30.13,30.04,2,0,6,0.00
2012-7-11,90,78,62,61,58,48,86,53,26,30.10,29.98,4,1,10,0.00
2012-7-12,90,78,65,66,62,58,81,58,38,30.00,29.89,5,1,14,0.00
2012-7-13,90,76,68,71,67,61,93,76,50,29.94,29.84,5,1,16,0.27
2012-7-14,92,79,66,71,67,65,97,69,44,29.96,29.91,3,1,11,0.00
2012-7-15,93,82,70,73,68,62,96,66,40,29.99,29.86,4,1,9,0.00
2012-7-16,99,88,77,71,68,64,77,54,33,29.87,29.65,7,2,26,0.00
2012-7-17,95,83,76,76,72,68,83,71,52,29.83,29.68,3,1,10,0.00
2012-7-18,82,74,70,72,70,68,96,86,66,29.89,29.76,4,0,10,1.08
2012-7-19,85,75,68,69,67,66,95,77,55,30.01,29.88,2,0,6,0.00
2012-7-20,90,77,67,70,66,61,90,69,49,30.10,29.95,4,1,10,0.12
2012-7-21,88,79,70,73,70,67,96,76,54,30.03,29.90,4,0,14,0.61
2012-7-22,91,81,75,75,72,68,89,73,54,29.94,29.80,3,1,11,0.00
2012-7-23,98,84,75,75,70,62,95,65,32,29.90,29.82,3,0,10,0.00
2012-7-24,83,76,70,73,71,66,97,85,67,29.95,29.73,3,1,10,1.84
2012-7-25,94,82,75,76,72,70,92,75,50,29.72,29.52,4,1,13,0.01
2012-7-26,86,76,67,72,62,58,94,63,42,29.78,29.58,5,1,14,0.00
2012-7-27,80,70,63,63,61,58,93,74,52,30.07,29.78,3,1,9,0.00
2012-7-28,86,74,61,71,63,60,97,72,47,30.11,29.96,4,1,13,0.01
2012-7-29,85,74,67,70,68,65,96,81,56,30.00,29.88,4,1,8,0.55
2012-7-30,90,78,68,74,66,59,92,70,37,29.90,29.82,4,1,11,0.00
2012-7-31,88,77,65,67,63,56,94,66,35,29.97,29.89,1,0,6,0.00
2012-8-1,94,80,69,75,68,59,86,66,51,29.90,29.71,4,1,16,0.00
2012-8-2,90,80,70,68,64,60,84,60,39,29.82,29.74,3,1,11,0.00
2012-8-3,90,80,66,71,65,62,92,63,41,29.84,29.68,6,2,18,0.39
2012-8-4,80,70,65,65,62,57,97,77,50,29.91,29.69,4,1,13,0.16
2012-8-5,78,68,57,58,54,50,87,64,39,30.16,29.91,4,1,14,0.00
2012-8-6,89,73,58,67,60,55,88,66,38,30.09,29.88,4,1,9,0.00
2012-8-7,87,76,67,67,61,53,96,63,32,29.95,29.88,3,0,9,0.00
2012-8-8,82,71,64,65,62,59,91,74,49,29.97,29.89,4,1,13,0.00
2012-8-9,79,68,60,65,60,56,96,76,52,30.07,29.92,4,1,13,0.00
2012-8-10,77,66,56,58,54,51,93,67,42,30.14,30.05,3,1,9,0.00
2012-8-11,81,67,51,56,52,47,96,64,35,30.10,29.96,2,0,7,0.00
2012-8-12,69,64,59,60,58,55,92,80,68,29.99,29.94,1,0,6,0.01
2012-8-13,82,69,55,64,58,54,98,72,42,30.01,29.91,3,1,13,0.00
2012-8-14,80,69,57,62,56,49,91,66,35,29.95,29.83,1,0,5,0.00
2012-8-15,83,73,64,69,64,57,96,73,54,29.84,29.64,5,2,15,0.62
2012-8-16,72,64,56,68,54,48,86,70,48,29.99,29.70,5,2,19,0.00
2012-8-17,74,62,50,53,47,43,89,60,34,30.09,29.99,3,0,8,0.00
2012-8-18,79,66,50,58,52,48,97,65,36,30.02,29.91,2,0,7,0.03
2012-8-19,77,66,54,59,52,42,96,67,32,30.00,29.93,3,0,9,0.01
2012-8-20,80,64,47,53,48,42,95,60,29,30.02,29.95,2,0,8,0.00
2012-8-21,82,67,51,55,51,47,96,61,32,30.06,29.95,3,1,10,0.00
2012-8-22,81,68,56,64,58,51,88,72,44,29.97,29.84,4,1,11,0.04
2012-8-23,86,76,69,68,63,58,87,64,53,29.86,29.71,5,2,18,0.05
2012-8-24,89,79,67,72,67,62,86,68,54,29.81,29.72,6,2,18,0.00
2012-8-25,78,71,66,68,65,63,90,81,60,29.91,29.81,3,1,10,0.06
2012-8-26,86,74,65,68,64,61,94,75,45,29.99,29.89,2,0,10,0.00
2012-8-27,87,72,57,64,59,56,97,68,36,30.10,29.99,2,0,8,0.00
2012-8-28,85,74,64,69,64,59,88,71,56,30.09,29.92,4,1,13,0.00
2012-8-29,92,80,68,67,65,62,88,63,37,29.94,29.72,6,2,17,0.00
2012-8-30,92,81,73,68,63,60,75,55,36,29.87,29.66,4,2,17,0.00
2012-8-31,85,73,61,60,54,47,85,54,29,30.06,29.88,2,1,10,0.00
2012-9-1,86,74,63,55,51,46,66,46,29,30.10,29.97,3,1,12,0.00
2012-9-2,88,75,60,69,62,54,84,65,52,29.98,29.77,5,2,15,0.00
2012-9-3,92,80,68,69,61,43,89,58,21,29.85,29.78,2,0,8,0.00
2012-9-4,91,77,67,68,61,46,96,62,26,29.83,29.70,4,1,13,0.00
2012-9-5,82,71,60,60,53,44,88,56,33,29.86,29.63,4,1,13,0.02
2012-9-6,82,68,55,60,52,47,87,62,30,29.94,29.82,4,0,9,0.00
2012-9-7,69,63,56,57,51,43,90,67,43,30.00,29.85,5,1,14,0.00
2012-9-8,78,62,48,51,47,44,94,62,36,30.02,29.78,7,2,19,0.00
2012-9-9,74,62,51,52,50,48,95,68,40,30.17,30.02,2,0,8,0.00
2012-9-10,82,69,54,52,49,47,84,53,30,30.07,29.78,8,3,23,0.00
2012-9-11,95,79,66,56,53,50,63,43,23,29.80,29.63,9,3,26,0.00
2012-9-12,79,61,53,55,51,46,91,72,40,30.22,29.77,4,0,12,0.09
2012-9-13,74,61,51,53,43,29,97,60,20,30.33,30.21,3,0,10,0.00
2012-9-14,76,62,48,48,42,36,77,51,25,30.32,30.22,2,0,6,0.00
2012-9-15,85,68,53,50,45,40,80,49,22,30.22,29.92,5,1,13,0.00
2012-9-16,79,69,60,57,52,43,75,54,40,29.93,29.82,4,2,14,0.00
2012-9-17,63,56,50,51,44,35,95,66,40,29.99,29.85,3,1,11,0.27
2012-9-18,61,51,41,40,36,31,90,59,34,30.03,29.87,3,1,11,0.00
2012-9-19,74,60,52,50,41,34,73,52,32,29.87,29.61,6,2,18,0.00
2012-9-20,66,57,48,44,38,34,74,51,31,29.90,29.81,5,1,17,0.00
2012-9-21,60,53,43,48,42,34,85,68,46,29.88,29.77,7,1,22,0.02
2012-9-22,59,48,40,40,34,28,83,62,34,30.25,29.89,6,2,20,0.00
2012-9-23,60,46,33,36,32,29,93,63,32,30.33,30.16,4,1,13,0.00
2012-9-24,76,57,40,43,36,30,70,49,25,30.16,29.72,4,1,14,0.00
2012-9-25,67,55,44,44,40,37,85,60,34,29.94,29.75,2,0,7,0.00
2012-9-26,64,50,38,40,38,35,94,67,36,30.21,29.93,2,0,7,0.00
2012-9-27,68,52,37,44,39,36,97,68,32,30.29,30.17,2,0,6,0.00
2012-9-28,76,57,42,47,43,37,98,65,25,30.22,30.08,2,0,7,0.00
2012-9-29,81,62,46,51,46,41,88,58,31,30.10,29.98,1,0,6,0.00
2012-9-30,77,61,46,49,44,38,95,60,28,30.01,29.86,2,0,6,0.00
2012-10-1,70,61,53,50,44,38,69,55,39,29.93,29.80,4,1,13,0.00
2012-10-2,72,57,40,48,41,36,88,58,32,29.96,29.82,4,0,9,0.00
2012-10-3,78,62,44,48,44,39,96,59,27,29.90,29.80,4,1,12,0.00
2012-10-4,65,49,42,47,36,30,77,61,43,30.15,29.73,6,3,21,0.00
2012-10-5,47,41,35,32,28,27,76,61,48,30.17,30.11,5,2,16,0.00
2012-10-6,44,38,30,31,27,23,84,66,44,30.31,30.16,3,1,12,0.00
2012-10-7,53,39,27,27,24,18,91,59,26,30.25,29.91,4,1,13,0.00
2012-10-8,63,50,39,42,33,26,70,54,36,29.90,29.59,5,1,15,0.00
2012-10-9,51,46,38,41,34,26,89,65,45,29.99,29.72,5,1,17,0.02
2012-10-10,52,43,30,32,28,26,83,57,37,30.12,29.85,3,1,16,0.00
2012-10-11,54,45,30,35,27,15,79,52,26,30.41,29.81,5,2,16,0.00
2012-10-12,53,40,25,28,21,15,91,53,23,30.47,30.07,5,2,15,0.00
2012-10-13,54,50,48,52,45,24,97,85,37,30.06,29.68,5,1,14,0.08
2012-10-14,58,50,44,49,42,34,96,74,42,29.88,29.72,5,1,15,0.00
2012-10-15,62,52,36,42,38,33,93,61,43,29.96,29.73,3,0,11,0.00
2012-10-16,67,58,51,51,47,42,90,67,55,29.72,29.34,3,1,11,0.00
2012-10-17,62,54,48,52,47,42,92,77,58,29.34,29.12,5,1,16,0.00
2012-10-18,50,46,44,44,42,41,94,87,76,29.38,29.16,1,0,6,0.00
2012-10-19,52,46,38,49,44,37,97,91,70,29.73,29.38,2,0,8,0.16
2012-10-20,55,44,33,45,41,33,98,88,66,29.83,29.73,3,1,9,0.01
2012-10-21,71,55,43,53,46,41,94,76,49,29.88,29.75,5,1,14,0.00
2012-10-22,63,55,48,53,47,44,88,74,58,29.94,29.85,4,1,12,0.00
2012-10-23,65,58,55,60,56,53,97,91,80,29.85,29.66,3,1,10,0.07
2012-10-24,59,55,48,56,53,46,98,94,86,29.84,29.72,4,1,13,0.21
2012-10-25,47,39,34,46,36,28,98,90,67,30.17,29.68,7,3,19,0.84
2012-10-26,39,36,30,29,26,24,82,67,55,30.39,30.17,3,1,12,0.00
2012-10-27,44,35,27,30,26,21,93,71,41,30.40,30.32,3,0,12,0.00
2012-10-28,46,36,26,27,26,23,91,67,44,30.38,30.30,3,1,11,0.00
2012-10-29,46,38,32,31,27,24,82,64,53,30.35,30.26,3,0,10,0.00
2012-10-30,50,37,27,34,26,17,94,68,41,30.27,30.09,3,0,10,0.00
2012-10-31,50,37,24,29,22,17,80,56,30,30.11,29.94,3,0,7,0.00
2012-11-1,45,40,31,34,29,24,81,63,49,30.07,29.93,4,1,14,0.00
2012-11-2,40,34,25,28,26,22,91,73,61,30.20,30.07,1,0,5,0.00
2012-11-3,43,40,37,31,28,27,69,64,56,30.24,30.18,1,0,4,0.00
2012-11-4,44,39,28,38,33,28,97,81,69,30.25,30.16,2,0,6,0.00
2012-11-5,43,41,38,38,36,33,93,81,73,30.21,29.95,4,1,14,0.02
2012-11-6,44,41,39,39,37,34,95,86,75,29.99,29.77,4,2,13,0.35
2012-11-7,46,41,38,37,35,33,87,78,60,30.13,29.99,2,0,7,0.00
2012-11-8,54,43,36,40,35,31,89,76,56,30.08,29.92,4,1,14,0.00
2012-11-9,54,44,35,42,38,33,95,80,63,30.07,29.93,4,1,15,0.00
2012-11-10,67,54,44,58,50,41,96,86,70,29.93,29.44,7,2,18,0.41
2012-11-11,55,33,22,53,29,13,95,83,67,29.97,29.48,4,2,13,0.03
2012-11-12,26,23,18,19,16,12,90,76,66,30.34,29.96,3,1,13,0.00
2012-11-13,44,30,17,30,22,15,92,72,44,30.42,30.32,4,1,12,0.00
2012-11-14,52,42,32,34,32,29,88,68,46,30.31,30.16,3,0,10,0.00
2012-11-15,51,42,28,37,29,13,78,61,43,30.49,30.13,3,1,12,0.00
2012-11-16,44,33,19,30,20,13,85,60,33,30.52,30.35,3,0,9,0.00
2012-11-17,55,45,35,40,36,30,88,70,53,30.35,30.20,5,2,15,0.00
2012-11-18,58,50,43,37,35,33,67,56,44,30.21,30.06,5,2,15,0.00
2012-11-19,60,50,39,41,38,36,91,66,50,30.09,29.99,3,1,10,0.00
2012-11-20,54,42,33,38,35,31,95,77,45,30.18,30.06,1,0,5,0.00
2012-11-21,62,52,40,45,40,34,82,62,48,30.05,29.67,5,2,18,0.00
2012-11-22,59,44,23,46,36,18,94,75,57,29.99,29.59,6,3,19,0.01
2012-11-23,26,21,15,19,15,10,88,76,65,30.42,29.99,7,3,27,0.00
2012-11-24,29,20,9,20,13,7,92,75,56,30.41,29.85,4,1,13,0.00
2012-11-25,31,29,23,24,22,10,81,75,58,30.20,29.85,5,1,15,0.00
2012-11-26,23,16,9,10,8,4,81,71,54,30.48,30.20,4,1,13,0.00
2012-11-27,38,25,16,27,18,9,85,73,63,30.41,30.13,3,1,12,0.00
2012-11-28,35,30,25,26,23,20,85,75,64,30.38,30.12,3,1,10,0.00
2012-11-29,40,32,23,28,26,22,95,78,62,30.14,30.07,3,0,16,0.00
2012-11-30,36,34,30,32,29,26,93,85,80,30.20,30.09,3,1,12,0.00
2012-12-1,47,40,34,44,38,32,96,91,84,30.09,29.73,4,1,15,0.00
2012-12-2,40,35,28,39,34,28,98,97,94,30.02,29.81,3,1,11,0.00
2012-12-3,54,47,39,53,43,30,98,85,55,29.91,29.55,5,2,16,0.04
2012-12-4,44,31,22,30,19,12,73,62,50,30.45,29.92,4,1,14,0.00
2012-12-5,40,28,19,27,17,12,77,63,50,30.45,29.90,7,2,19,0.00
2012-12-6,46,40,27,38,30,21,81,68,60,30.02,29.79,5,2,17,0.00
2012-12-7,31,27,21,26,23,19,94,85,74,30.09,30.01,2,0,7,0.00
2012-12-8,34,30,25,28,25,23,94,85,76,30.10,30.02,2,0,9,0.02
2012-12-9,32,29,19,30,28,16,96,94,78,30.05,29.85,1,0,7,0.00
2012-12-10,19,11,2,16,7,-1,89,84,74,30.01,29.91,0,0,0,0.00
2012-12-11,21,14,6,16,11,3,93,87,79,30.08,29.86,0,0,0,0.00
2012-12-12,42,29,8,30,23,6,95,79,60,30.08,29.88,4,1,11,0.09
2012-12-13,37,31,23,26,23,20,95,73,61,30.16,29.94,2,0,11,0.00
2012-12-14,39,29,19,32,24,18,96,82,66,30.17,29.83,2,1,8,0.01
2012-12-15,39,36,33,36,34,32,97,93,75,29.83,29.51,2,0,8,0.46
2012-12-16,34,26,20,33,24,17,97,93,89,29.86,29.56,3,1,11,0.04
2012-12-17,28,23,20,22,20,18,94,89,81,29.85,29.75,1,0,5,0.00
2012-12-18,27,25,23,25,23,21,95,90,85,29.86,29.69,1,0,6,0.00
2012-12-19,34,29,27,28,26,21,93,88,78,30.07,29.86,3,1,9,0.00
2012-12-20,27,22,12,21,17,8,90,84,76,30.12,29.88,7,3,21,0.00
2012-12-21,21,13,8,11,7,4,85,79,64,30.33,30.11,3,1,15,0.00
2012-12-22,28,18,9,18,12,6,89,78,60,30.26,30.02,3,0,10,0.00
2012-12-23,19,15,10,16,10,6,89,80,71,30.21,30.08,3,0,10,0.00
2012-12-24,18,14,5,11,7,0,86,74,58,30.35,30.08,3,1,11,0.00
2012-12-25,11,5,-1,2,-1,-5,84,77,66,30.57,30.35,2,0,7,0.00
2012-12-26,18,10,3,7,3,-1,86,75,58,30.50,30.32,1,0,5,0.00
2012-12-27,21,15,7,18,12,4,91,85,74,30.34,30.21,1,0,5,0.00
2012-12-28,25,20,14,20,17,12,95,88,79,30.21,30.06,1,0,4,0.00
2012-12-29,19,14,4,16,10,1,93,85,74,30.25,30.07,2,0,8,0.00
2012-12-30,22,13,3,18,9,0,90,84,74,30.27,29.96,2,0,7,0.00
2012-12-31,17,10,-1,14,4,-5,87,74,58,30.34,30.05,4,1,17,0.00
2013-1-1,20,6,-6,17,2,-9,89,83,67,30.36,30.11,2,0,9,0.00